Aérodrome :
LOGIN :

S'inscrire | Disclaimer

   EN    FR    IT 

 










Légende :    VFR   VFR Marginal   IFR   IFR Intensif   IFR Très Intensif
Visi : 
Plafond : 
>= 8 km
>= 3000ft
5 à 8 km
1000 à 3000 ft
1500m à 5 km
500 à 1000 ft
800 à 1500m
200 à 500 ft
< 800m
< 200 ft
Symboles :   Orages  Brouillard  Fortes neiges  Fortes précipitations  Vent > 20 kt
SIGMETs :   Divers  Orages  Givrage  Turbulence  Onde Orograph.  Cendres Volcan.







- Altitude de l'aérodrome : 870 ft
- Code IATA : ETZ
- Voir les cartes d'approche


LFJL - Metz Nancy Lorraine

DERNIER METAR :
  • 171330Z AUTO 16010KT CAVOK 16/02 Q1022 NOSIG

METARs EXPIRÉS :
  • 171300Z AUTO 15011KT CAVOK 16/02 Q1022 NOSIG
  • 171230Z AUTO 17008KT 130V210 CAVOK 16/M00 Q1022 NOSIG
  • 171200Z AUTO 19009KT CAVOK 16/00 Q1023 NOSIG
  • 171130Z AUTO 18008KT CAVOK 15/01 Q1023 NOSIG
  • 171100Z AUTO 18008KT CAVOK 14/01 Q1023 NOSIG

TAF TAF LFJL
Valide du 17 à 12h jusqu'au 18 à 12h UTC


171100Z 1712/1812 17008KT CAVOK
Pas de NOTAMs connus pour ce terrain.



MET'MAP, la Météo Aéronautique d'un coup d'oeil ! - Copyright ORBIFLY Décembre 2007 - Disclaimer

ORBIFLY MET'MAP TEAM :

Programmation & Développement : Alexandra Zaïnal
Conception & Développement : Baudouin d'Aumeries
Co-Programmation & Développement : Marc-Olivier Méhu
Soutien technique & logistique : Manuel Goepfert

Contact : metmap@orbifly.com




SOURCES & CREDITS :

   NOAA